Regional Weather Roundup
Issued by NWS Charleston, WV

Home | Current Version | Previous Version | Text Only | Print | Product List | Glossary On
Versions: 1 2 3 4 5 6 7 8 9 10 11 12 13 14 15 16 17 18 19 20 21 22 23 24 25 26 27 28 29 30 31 32 33 34 35 36 37 38 39 40 41 42 43 44 45 46 47 48 49 50
033
ASUS41 KRLX 101110
RWRRLX
West Virginia Regional Weather Roundup
National Weather Service Charleston WV
600 AM EST WED FEB 10 2016

Note: "fair" indicates few or no clouds below 12,000 feet with no
significant weather and/or obstructions to visibility.

WVZ003-101200-
Northern Panhandle of West Virginia

CITY           SKY/WX    TMP DP  RH WIND       PRES   REMARKS
WHEELING       CLOUDY    21  14  74 SW20G26   29.77R WCI   6
$$

WVZ009-101200-
Northwest West Virginia

CITY           SKY/WX    TMP DP  RH WIND       PRES   REMARKS
PARKERSBURG    CLOUDY    19  14  81 W9        29.89R WCI   8
$$

WVZ006-101200-
Western West Virginia

CITY           SKY/WX    TMP DP  RH WIND       PRES   REMARKS
HUNTINGTON     LGT SNOW  18  13  80 W8        29.94R WCI   8
$$

WVZ015-101200-
West Central West Virginia

CITY           SKY/WX    TMP DP  RH WIND       PRES   REMARKS
CHARLESTON     FLURRIES  21  10  62 W14G21    29.90R WCI   8
$$

WVZ022-031-101200-
North Central West Virginia

CITY           SKY/WX    TMP DP  RH WIND       PRES   REMARKS
CLARKSBURG     FLURRIES  20  16  84 W10G22    29.82R WCI   9
MORGANTOWN     CLOUDY    22  15  75 SW10G16   29.79R
$$

WVZ025-035-042-045-101200-
Southern West Virginia

CITY           SKY/WX    TMP DP  RH WIND       PRES   REMARKS
BECKLEY        LGT SNOW  16  11  80 W9        29.77R WCI   4
LOGAN          FLURRIES  18  10  73 W12       29.87R WCI   5
BLUEFIELD      FLURRIES  14   9  80 W12       29.75R WCI   0
LEWISBURG      FLURRIES  20  14  75 W7        29.76S
$$

WVZ047-101200-
Northern Mountains of West Virginia

CITY           SKY/WX    TMP DP  RH WIND       PRES   REMARKS
ELKINS         FLURRIES  19  11  70 W7        29.76R WCI  10
$$

WVZ052-101200-
Eastern Panhandle of West Virginia

CITY           SKY/WX    TMP DP  RH WIND       PRES   REMARKS
MARTINSBURG    CLOUDY    28  16  60 W15       29.72R
PETERSBURG     CLOUDY    26  13  58 CALM      29.77R
$$




USA.gov is the U.S. government's official web portal to all federal, state and local government web resources and services.